Wetterdaten: Donnerstag, 08.08.2013
Datum Zeit Temperatur Luftfeuchte Luftdruck Regen Wind Richtung Richtung Taupunkt Windchill Windben
08.08.2013 00:00 19,3 C 85 % 1017,6 hPa 0,0 l/m 1,9 km/h (1 Bft) SO 135 16,7 C 19,3 C 2,1 km/h (1 Bft)
08.08.2013 00:05 19,4 C 85 % 1017,8 hPa 0,0 l/m 2,1 km/h (1 Bft) O-SO 112 16,8 C 19,4 C 5,0 km/h (1 Bft)
08.08.2013 00:10 19,6 C 85 % 1017,8 hPa 0,0 l/m 1,9 km/h (1 Bft) SO 135 17,0 C 19,6 C 1,6 km/h (1 Bft)
08.08.2013 00:15 19,7 C 85 % 1017,8 hPa 0,0 l/m 2,6 km/h (1 Bft) S-SO 157 17,1 C 19,7 C 4,0 km/h (1 Bft)
08.08.2013 00:20 19,7 C 85 % 1017,8 hPa 0,0 l/m 2,1 km/h (1 Bft) S-SO 157 17,1 C 19,8 C 3,5 km/h (1 Bft)
08.08.2013 00:25 19,7 C 85 % 1018,4 hPa 0,0 l/m 2,3 km/h (1 Bft) S 180 17,1 C 19,9 C 0,0 km/h (0 Bft)
08.08.2013 00:30 19,8 C 85 % 1018,4 hPa 0,0 l/m 3,1 km/h (1 Bft) S-SO 157 17,2 C 20,0 C 3,4 km/h (1 Bft)
08.08.2013 00:35 19,7 C 85 % 1018,4 hPa 0,0 l/m 3,5 km/h (1 Bft) S 180 17,1 C 20,0 C 6,1 km/h (2 Bft)
08.08.2013 00:40 19,8 C 85 % 1018,4 hPa 0,0 l/m 5,0 km/h (1 Bft) S-SW 202 17,2 C 20,1 C 9,7 km/h (2 Bft)
08.08.2013 00:45 19,8 C 85 % 1018,7 hPa 0,0 l/m 5,6 km/h (1 Bft) SO 135 17,2 C 20,1 C 2,9 km/h (1 Bft)
08.08.2013 00:50 19,8 C 84 % 1018,7 hPa 0,0 l/m 6,1 km/h (2 Bft) O 90 17,0 C 20,1 C 13,7 km/h (3 Bft)
08.08.2013 00:55 19,8 C 84 % 1018,7 hPa 0,0 l/m 5,5 km/h (1 Bft) S 180 17,0 C 20,1 C 8,4 km/h (2 Bft)
08.08.2013 01:00 19,8 C 84 % 1018,7 hPa 0,0 l/m 4,7 km/h (1 Bft) SW 225 17,0 C 20,1 C 3,2 km/h (1 Bft)
08.08.2013 01:05 19,7 C 84 % 1018,8 hPa 0,0 l/m 4,2 km/h (1 Bft) S 180 16,9 C 20,1 C 3,1 km/h (1 Bft)
08.08.2013 01:10 19,7 C 84 % 1018,8 hPa 0,0 l/m 3,2 km/h (1 Bft) S 180 16,9 C 20,0 C 4,0 km/h (1 Bft)
08.08.2013 01:15 19,6 C 84 % 1018,8 hPa 0,0 l/m 3,4 km/h (1 Bft) SO 135 16,8 C 19,9 C 2,6 km/h (1 Bft)
08.08.2013 01:20 19,5 C 84 % 1018,8 hPa 0,0 l/m 3,7 km/h (1 Bft) SO 135 16,7 C 19,8 C 3,5 km/h (1 Bft)
08.08.2013 01:25 19,5 C 84 % 1019,0 hPa 0,0 l/m 3,4 km/h (1 Bft) N-NO 22 16,7 C 19,7 C 4,2 km/h (1 Bft)
08.08.2013 01:30 19,5 C 84 % 1019,0 hPa 0,0 l/m 3,2 km/h (1 Bft) S-SO 157 16,7 C 19,7 C 4,7 km/h (1 Bft)
08.08.2013 01:35 19,5 C 84 % 1019,0 hPa 0,0 l/m 3,5 km/h (1 Bft) W-SW 247 16,7 C 19,7 C 5,3 km/h (1 Bft)
08.08.2013 01:40 19,4 C 84 % 1019,0 hPa 0,0 l/m 3,9 km/h (1 Bft) W-SW 247 16,6 C 19,6 C 4,2 km/h (1 Bft)
08.08.2013 01:45 19,3 C 84 % 1018,6 hPa 0,0 l/m 3,9 km/h (1 Bft) S 180 16,5 C 19,5 C 7,9 km/h (2 Bft)
08.08.2013 01:50 19,1 C 84 % 1018,6 hPa 0,0 l/m 4,8 km/h (1 Bft) S 180 16,3 C 19,3 C 5,0 km/h (1 Bft)
08.08.2013 01:55 18,9 C 84 % 1018,6 hPa 0,0 l/m 5,3 km/h (1 Bft) W-SW 247 16,1 C 19,1 C 6,9 km/h (2 Bft)
08.08.2013 02:00 18,7 C 84 % 1018,6 hPa 0,0 l/m 5,1 km/h (1 Bft) S 180 15,9 C 18,9 C 5,5 km/h (1 Bft)
08.08.2013 02:05 18,6 C 84 % 1018,9 hPa 0,0 l/m 4,8 km/h (1 Bft) W 270 15,8 C 18,8 C 2,6 km/h (1 Bft)
08.08.2013 02:10 18,4 C 84 % 1018,9 hPa 0,0 l/m 4,2 km/h (1 Bft) S 180 15,6 C 18,6 C 4,5 km/h (1 Bft)
08.08.2013 02:15 18,2 C 83 % 1018,9 hPa 0,0 l/m 4,3 km/h (1 Bft) S-SO 157 15,3 C 18,4 C 4,2 km/h (1 Bft)
08.08.2013 02:20 18,1 C 83 % 1018,9 hPa 0,0 l/m 3,9 km/h (1 Bft) S-SW 202 15,2 C 18,3 C 2,7 km/h (1 Bft)
08.08.2013 02:25 17,9 C 83 % 1018,4 hPa 0,0 l/m 2,7 km/h (1 Bft) S-SO 157 15,0 C 18,1 C 1,9 km/h (1 Bft)
08.08.2013 02:30 17,7 C 83 % 1018,4 hPa 0,0 l/m 1,4 km/h (1 Bft) O 90 14,8 C 17,8 C 0,0 km/h (0 Bft)
08.08.2013 02:35 17,7 C 84 % 1018,4 hPa 0,0 l/m 1,0 km/h (0 Bft) O-NO 67 15,0 C 17,7 C 0,0 km/h (0 Bft)
08.08.2013 02:40 17,8 C 84 % 1018,4 hPa 0,0 l/m 0,3 km/h (0 Bft) O 90 15,1 C 17,6 C 0,0 km/h (0 Bft)
08.08.2013 02:45 17,9 C 84 % 1018,4 hPa 0,0 l/m 0,8 km/h (0 Bft) O 90 15,2 C 17,6 C 2,1 km/h (1 Bft)
08.08.2013 02:50 17,9 C 85 % 1018,4 hPa 0,0 l/m 1,3 km/h (1 Bft) NO 45 15,3 C 17,7 C 1,8 km/h (1 Bft)
08.08.2013 02:55 17,9 C 85 % 1018,4 hPa 0,0 l/m 1,4 km/h (1 Bft) O-NO 67 15,3 C 17,8 C 1,6 km/h (1 Bft)
08.08.2013 03:00 17,9 C 84 % 1018,4 hPa 0,0 l/m 1,3 km/h (1 Bft) O-SO 112 15,2 C 17,8 C 0,0 km/h (0 Bft)
08.08.2013 03:05 17,9 C 85 % 1018,4 hPa 0,0 l/m 0,5 km/h (0 Bft) O-NO 67 15,3 C 17,9 C 0,0 km/h (0 Bft)
08.08.2013 03:10 17,8 C 85 % 1018,4 hPa 0,0 l/m 0,0 km/h (0 Bft) N-NO 22 15,2 C 17,8 C 0,0 km/h (0 Bft)
08.08.2013 03:15 17,8 C 85 % 1018,4 hPa 0,0 l/m 0,0 km/h (0 Bft) N-NO 22 15,2 C 17,8 C 0,0 km/h (0 Bft)
08.08.2013 03:20 17,7 C 85 % 1018,4 hPa 0,0 l/m 0,0 km/h (0 Bft) NO 45 15,1 C 17,8 C 0,0 km/h (0 Bft)
08.08.2013 03:25 17,7 C 85 % 1018,5 hPa 0,0 l/m 0,0 km/h (0 Bft) NO 45 15,1 C 17,7 C 0,0 km/h (0 Bft)
08.08.2013 03:30 17,7 C 85 % 1018,5 hPa 0,0 l/m 0,0 km/h (0 Bft) N-NO 22 15,1 C 17,7 C 0,0 km/h (0 Bft)
08.08.2013 03:35 17,7 C 85 % 1018,5 hPa 0,0 l/m 0,0 km/h (0 Bft) NO 45 15,1 C 17,6 C 0,0 km/h (0 Bft)
08.08.2013 03:40 17,7 C 85 % 1018,5 hPa 0,0 l/m 0,0 km/h (0 Bft) NO 45 15,1 C 17,7 C 0,0 km/h (0 Bft)
08.08.2013 03:45 17,7 C 85 % 1018,6 hPa 0,0 l/m 0,0 km/h (0 Bft) NO 45 15,1 C 17,7 C 0,0 km/h (0 Bft)
08.08.2013 03:50 17,7 C 86 % 1018,6 hPa 0,0 l/m 0,0 km/h (0 Bft) NO 45 15,3 C 17,7 C 0,0 km/h (0 Bft)
08.08.2013 03:55 17,7 C 86 % 1018,6 hPa 0,0 l/m 0,0 km/h (0 Bft) N-NO 22 15,3 C 17,7 C 0,0 km/h (0 Bft)
08.08.2013 04:00 17,7 C 86 % 1018,6 hPa 0,0 l/m 0,0 km/h (0 Bft) N 360 15,3 C 17,6 C 0,0 km/h (0 Bft)
08.08.2013 04:05 17,7 C 86 % 1018,4 hPa 0,0 l/m 0,3 km/h (0 Bft) N-NO 22 15,3 C 17,6 C 0,0 km/h (0 Bft)
08.08.2013 04:10 17,7 C 86 % 1018,4 hPa 0,0 l/m 0,8 km/h (0 Bft) N-NO 22 15,3 C 17,6 C 2,7 km/h (1 Bft)
08.08.2013 04:15 17,6 C 86 % 1018,4 hPa 0,0 l/m 0,6 km/h (0 Bft) N 360 15,2 C 17,6 C 0,0 km/h (0 Bft)
08.08.2013 04:20 17,6 C 86 % 1018,4 hPa 0,0 l/m 1,1 km/h (1 Bft) N-NW 337 15,2 C 17,6 C 0,0 km/h (0 Bft)
08.08.2013 04:25 17,6 C 85 % 1018,3 hPa 0,0 l/m 0,8 km/h (0 Bft) W-NW 292 15,0 C 17,6 C 0,0 km/h (0 Bft)
08.08.2013 04:30 17,5 C 85 % 1018,3 hPa 0,0 l/m 0,2 km/h (0 Bft) W-NW 292 14,9 C 17,6 C 0,0 km/h (0 Bft)
08.08.2013 04:35 17,5 C 85 % 1018,3 hPa 0,0 l/m 0,6 km/h (0 Bft) S-SW 202 14,9 C 17,6 C 2,6 km/h (1 Bft)
08.08.2013 04:40 17,4 C 85 % 1018,3 hPa 0,0 l/m 0,6 km/h (0 Bft) W-SW 247 14,8 C 17,5 C 0,0 km/h (0 Bft)
08.08.2013 04:45 17,4 C 85 % 1018,5 hPa 0,0 l/m 0,3 km/h (0 Bft) W 270 14,8 C 17,5 C 0,0 km/h (0 Bft)
08.08.2013 04:50 17,4 C 85 % 1018,5 hPa 0,0 l/m 0,2 km/h (0 Bft) NO 45 14,8 C 17,5 C 3,1 km/h (1 Bft)
08.08.2013 04:55 17,4 C 85 % 1018,5 hPa 0,0 l/m 0,8 km/h (0 Bft) N-NO 22 14,8 C 17,5 C 2,1 km/h (1 Bft)
08.08.2013 05:00 17,4 C 85 % 1018,5 hPa 0,0 l/m 0,8 km/h (0 Bft) N-NO 22 14,8 C 17,5 C 0,0 km/h (0 Bft)
08.08.2013 05:05 17,4 C 85 % 1018,1 hPa 0,0 l/m 0,3 km/h (0 Bft) N 360 14,8 C 17,4 C 2,1 km/h (1 Bft)
08.08.2013 05:10 17,4 C 85 % 1018,1 hPa 0,0 l/m 0,8 km/h (0 Bft) S-SW 202 14,8 C 17,4 C 0,0 km/h (0 Bft)
08.08.2013 05:15 17,4 C 85 % 1018,1 hPa 0,0 l/m 1,4 km/h (1 Bft) W-SW 247 14,8 C 17,4 C 0,0 km/h (0 Bft)
08.08.2013 05:20 17,3 C 86 % 1018,1 hPa 0,0 l/m 1,4 km/h (1 Bft) W 270 14,9 C 17,4 C 3,1 km/h (1 Bft)
08.08.2013 05:25 17,3 C 86 % 1017,9 hPa 0,0 l/m 1,9 km/h (1 Bft) NW 315 14,9 C 17,3 C 3,1 km/h (1 Bft)
08.08.2013 05:30 17,2 C 86 % 1017,9 hPa 0,0 l/m 2,3 km/h (1 Bft) NO 45 14,8 C 17,3 C 1,9 km/h (1 Bft)
08.08.2013 05:35 17,2 C 87 % 1017,9 hPa 0,0 l/m 2,4 km/h (1 Bft) W-NW 292 15,0 C 17,2 C 4,8 km/h (1 Bft)
08.08.2013 05:40 17,1 C 87 % 1017,9 hPa 0,0 l/m 3,2 km/h (1 Bft) W-NW 292 14,9 C 17,1 C 3,1 km/h (1 Bft)
08.08.2013 05:45 17,0 C 87 % 1018,2 hPa 0,0 l/m 2,6 km/h (1 Bft) N 360 14,8 C 17,1 C 1,9 km/h (1 Bft)
08.08.2013 05:50 17,0 C 87 % 1018,2 hPa 0,0 l/m 1,9 km/h (1 Bft) O 90 14,8 C 17,1 C 0,0 km/h (0 Bft)
08.08.2013 05:55 17,0 C 87 % 1018,2 hPa 0,0 l/m 2,3 km/h (1 Bft) N 360 14,8 C 17,0 C 4,2 km/h (1 Bft)
08.08.2013 06:00 17,0 C 87 % 1018,2 hPa 0,0 l/m 2,4 km/h (1 Bft) O-NO 67 14,8 C 17,0 C 4,7 km/h (1 Bft)
08.08.2013 06:05 17,0 C 87 % 1018,2 hPa 0,0 l/m 2,7 km/h (1 Bft) N-NO 22 14,8 C 17,0 C 1,6 km/h (1 Bft)
08.08.2013 06:10 17,0 C 86 % 1018,2 hPa 0,0 l/m 2,3 km/h (1 Bft) NW 315 14,6 C 17,0 C 2,4 km/h (1 Bft)
08.08.2013 06:15 17,0 C 86 % 1018,2 hPa 0,0 l/m 1,9 km/h (1 Bft) N 360 14,6 C 17,0 C 2,4 km/h (1 Bft)
08.08.2013 06:20 17,0 C 86 % 1018,2 hPa 0,0 l/m 1,4 km/h (1 Bft) N 360 14,6 C 17,0 C 0,0 km/h (0 Bft)
08.08.2013 06:25 17,0 C 86 % 1018,2 hPa 0,0 l/m 1,4 km/h (1 Bft) N-NO 22 14,6 C 17,0 C 2,7 km/h (1 Bft)
08.08.2013 06:30 16,9 C 86 % 1018,2 hPa 0,0 l/m 1,8 km/h (1 Bft) N 360 14,5 C 17,0 C 0,0 km/h (0 Bft)
08.08.2013 06:35 16,9 C 86 % 1018,2 hPa 0,0 l/m 1,9 km/h (1 Bft) N-NW 337 14,5 C 17,0 C 3,7 km/h (1 Bft)
08.08.2013 06:40 17,0 C 86 % 1018,2 hPa 0,0 l/m 1,8 km/h (1 Bft) NO 45 14,6 C 17,0 C 0,0 km/h (0 Bft)
08.08.2013 06:45 17,0 C 86 % 1018,1 hPa 0,0 l/m 1,6 km/h (1 Bft) NO 45 14,6 C 17,0 C 3,5 km/h (1 Bft)
08.08.2013 06:50 17,0 C 86 % 1018,1 hPa 0,0 l/m 1,9 km/h (1 Bft) N 360 14,6 C 17,0 C 2,9 km/h (1 Bft)
08.08.2013 06:55 17,0 C 85 % 1018,1 hPa 0,0 l/m 3,4 km/h (1 Bft) N-NO 22 14,5 C 17,1 C 4,3 km/h (1 Bft)
08.08.2013 07:00 17,1 C 85 % 1018,1 hPa 0,0 l/m 3,7 km/h (1 Bft) W-NW 292 14,6 C 17,1 C 4,8 km/h (1 Bft)
08.08.2013 07:05 17,0 C 85 % 1018,4 hPa 0,0 l/m 3,2 km/h (1 Bft) W-NW 292 14,5 C 17,1 C 5,1 km/h (1 Bft)
08.08.2013 07:10 17,1 C 83 % 1018,4 hPa 0,0 l/m 3,5 km/h (1 Bft) N-NW 337 14,2 C 17,2 C 4,5 km/h (1 Bft)
08.08.2013 07:15 17,0 C 83 % 1018,4 hPa 0,0 l/m 2,9 km/h (1 Bft) N 360 14,1 C 17,2 C 2,4 km/h (1 Bft)
08.08.2013 07:20 17,0 C 83 % 1018,4 hPa 0,0 l/m 2,4 km/h (1 Bft) W-NW 292 14,1 C 17,2 C 3,1 km/h (1 Bft)
08.08.2013 07:25 17,1 C 83 % 1018,6 hPa 0,0 l/m 2,7 km/h (1 Bft) N-NW 337 14,2 C 17,2 C 4,3 km/h (1 Bft)
08.08.2013 07:30 17,0 C 82 % 1018,6 hPa 0,0 l/m 2,7 km/h (1 Bft) N-NW 337 13,9 C 17,2 C 4,2 km/h (1 Bft)
08.08.2013 07:35 17,0 C 82 % 1018,6 hPa 0,0 l/m 1,9 km/h (1 Bft) N-NO 22 13,9 C 17,2 C 0,0 km/h (0 Bft)
08.08.2013 07:40 17,0 C 82 % 1018,6 hPa 0,0 l/m 1,0 km/h (0 Bft) N-NO 22 13,9 C 17,2 C 1,6 km/h (1 Bft)
08.08.2013 07:45 17,0 C 82 % 1018,8 hPa 0,0 l/m 0,8 km/h (0 Bft) O-SO 112 13,9 C 17,2 C 0,0 km/h (0 Bft)
08.08.2013 07:50 17,0 C 81 % 1018,8 hPa 0,0 l/m 0,3 km/h (0 Bft) O 90 13,7 C 17,2 C 0,0 km/h (0 Bft)
08.08.2013 07:55 17,0 C 81 % 1018,8 hPa 0,0 l/m 0,0 km/h (0 Bft) N-NW 337 13,7 C 17,2 C 0,0 km/h (0 Bft)
08.08.2013 08:00 17,1 C 81 % 1018,8 hPa 0,0 l/m 0,2 km/h (0 Bft) NO 45 13,8 C 17,3 C 2,3 km/h (1 Bft)
08.08.2013 08:05 17,1 C 81 % 1018,9 hPa 0,0 l/m 0,5 km/h (0 Bft) NO 45 13,8 C 17,4 C 0,0 km/h (0 Bft)
08.08.2013 08:10 17,3 C 80 % 1018,9 hPa 0,0 l/m 1,1 km/h (1 Bft) O 90 13,8 C 17,5 C 0,0 km/h (0 Bft)
08.08.2013 08:15 17,3 C 80 % 1018,9 hPa 0,0 l/m 0,6 km/h (0 Bft) W-SW 247 13,8 C 17,6 C 0,0 km/h (0 Bft)
08.08.2013 08:20 17,2 C 80 % 1018,9 hPa 0,0 l/m 0,2 km/h (0 Bft) SW 225 13,7 C 17,6 C 2,7 km/h (1 Bft)
08.08.2013 08:25 17,2 C 80 % 1019,2 hPa 0,0 l/m 0,6 km/h (0 Bft) W-SW 247 13,7 C 17,5 C 0,0 km/h (0 Bft)
08.08.2013 08:30 17,2 C 80 % 1019,2 hPa 0,0 l/m 1,0 km/h (0 Bft) NO 45 13,7 C 17,6 C 0,0 km/h (0 Bft)
08.08.2013 08:35 17,3 C 79 % 1019,2 hPa 0,0 l/m 0,5 km/h (0 Bft) NO 45 13,6 C 17,6 C 0,0 km/h (0 Bft)
08.08.2013 08:40 17,6 C 80 % 1019,2 hPa 0,0 l/m 0,2 km/h (0 Bft) O 90 14,1 C 17,8 C 0,0 km/h (0 Bft)
08.08.2013 08:45 17,6 C 79 % 1020,0 hPa 0,0 l/m 0,0 km/h (0 Bft) NO 45 13,9 C 18,0 C 0,0 km/h (0 Bft)
08.08.2013 08:50 17,7 C 79 % 1020,0 hPa 0,0 l/m 0,6 km/h (0 Bft) NO 45 14,0 C 18,2 C 2,9 km/h (1 Bft)
08.08.2013 08:55 17,7 C 79 % 1020,0 hPa 0,0 l/m 1,4 km/h (1 Bft) N-NW 337 14,0 C 18,2 C 2,1 km/h (1 Bft)
08.08.2013 09:00 17,8 C 79 % 1020,0 hPa 0,0 l/m 1,1 km/h (1 Bft) N-NO 22 14,1 C 18,2 C 1,6 km/h (1 Bft)
08.08.2013 09:05 17,6 C 77 % 1019,8 hPa 0,0 l/m 1,3 km/h (1 Bft) N 360 13,5 C 18,2 C 0,0 km/h (0 Bft)
08.08.2013 09:10 17,7 C 78 % 1019,8 hPa 0,0 l/m 1,8 km/h (1 Bft) N-NO 22 13,8 C 18,1 C 0,0 km/h (0 Bft)
08.08.2013 09:15 17,9 C 77 % 1019,8 hPa 0,0 l/m 1,1 km/h (1 Bft) NW 315 13,8 C 18,3 C 4,8 km/h (1 Bft)
08.08.2013 09:20 17,9 C 76 % 1019,8 hPa 0,0 l/m 1,3 km/h (1 Bft) N-NW 337 13,6 C 18,4 C 0,0 km/h (0 Bft)
08.08.2013 09:25 17,9 C 76 % 1019,8 hPa 0,0 l/m 1,0 km/h (0 Bft) N-NW 337 13,6 C 18,5 C 1,8 km/h (1 Bft)
08.08.2013 09:30 18,4 C 75 % 1019,8 hPa 0,0 l/m 1,6 km/h (1 Bft) NW 315 13,9 C 18,9 C 3,2 km/h (1 Bft)
08.08.2013 09:35 18,2 C 73 % 1019,8 hPa 0,0 l/m 2,7 km/h (1 Bft) NW 315 13,3 C 19,0 C 3,9 km/h (1 Bft)
08.08.2013 09:40 18,4 C 74 % 1019,8 hPa 0,0 l/m 3,1 km/h (1 Bft) O-NO 67 13,7 C 18,9 C 2,3 km/h (1 Bft)
08.08.2013 09:45 18,6 C 74 % 1019,9 hPa 0,0 l/m 2,6 km/h (1 Bft) N-NO 22 13,9 C 19,1 C 1,6 km/h (1 Bft)
08.08.2013 09:50 19,5 C 70 % 1019,9 hPa 0,0 l/m 2,9 km/h (1 Bft) N 360 13,9 C 19,8 C 6,8 km/h (2 Bft)
08.08.2013 09:55 19,9 C 70 % 1019,9 hPa 0,0 l/m 3,7 km/h (1 Bft) W-NW 292 14,3 C 20,4 C 4,3 km/h (1 Bft)
08.08.2013 10:00 19,3 C 68 % 1019,9 hPa 0,0 l/m 3,9 km/h (1 Bft) N 360 13,2 C 20,7 C 5,6 km/h (1 Bft)
08.08.2013 10:05 19,2 C 67 % 1020,1 hPa 0,0 l/m 3,2 km/h (1 Bft) N 360 12,9 C 20,7 C 4,8 km/h (1 Bft)
08.08.2013 10:10 19,5 C 67 % 1020,1 hPa 0,0 l/m 2,9 km/h (1 Bft) NW 315 13,2 C 20,7 C 1,9 km/h (1 Bft)
08.08.2013 10:15 19,3 C 66 % 1020,1 hPa 0,0 l/m 2,7 km/h (1 Bft) N-NO 22 12,8 C 20,7 C 0,0 km/h (0 Bft)
08.08.2013 10:20 20,0 C 63 % 1020,1 hPa 0,0 l/m 1,9 km/h (1 Bft) W-NW 292 12,7 C 20,9 C 4,5 km/h (1 Bft)
08.08.2013 10:25 20,0 C 64 % 1020,4 hPa 0,0 l/m 2,3 km/h (1 Bft) W-NW 292 13,0 C 21,2 C 3,5 km/h (1 Bft)
08.08.2013 10:30 20,1 C 63 % 1020,4 hPa 0,0 l/m 3,4 km/h (1 Bft) N-NW 337 12,8 C 21,3 C 4,0 km/h (1 Bft)
08.08.2013 10:35 20,3 C 62 % 1020,4 hPa 0,0 l/m 3,5 km/h (1 Bft) N 360 12,8 C 21,3 C 3,1 km/h (1 Bft)
08.08.2013 10:40 20,7 C 63 % 1020,4 hPa 0,0 l/m 4,0 km/h (1 Bft) W-NW 292 13,4 C 21,7 C 5,1 km/h (1 Bft)
08.08.2013 10:45 20,6 C 63 % 1020,8 hPa 0,0 l/m 3,9 km/h (1 Bft) O-SO 112 13,3 C 21,7 C 3,7 km/h (1 Bft)
08.08.2013 10:50 20,5 C 62 % 1020,8 hPa 0,0 l/m 4,0 km/h (1 Bft) NW 315 13,0 C 21,8 C 5,6 km/h (1 Bft)
08.08.2013 10:55 20,3 C 63 % 1020,8 hPa 0,0 l/m 4,3 km/h (1 Bft) W-NW 292 13,0 C 21,6 C 3,4 km/h (1 Bft)
08.08.2013 11:00 20,4 C 64 % 1020,8 hPa 0,0 l/m 3,7 km/h (1 Bft) W-NW 292 13,4 C 21,7 C 2,6 km/h (1 Bft)
08.08.2013 11:05 20,4 C 64 % 1021,1 hPa 0,0 l/m 2,7 km/h (1 Bft) N-NW 337 13,4 C 21,8 C 3,5 km/h (1 Bft)
08.08.2013 11:10 20,3 C 64 % 1021,1 hPa 0,0 l/m 2,6 km/h (1 Bft) W-SW 247 13,3 C 22,2 C 2,9 km/h (1 Bft)
08.08.2013 11:15 21,5 C 63 % 1021,1 hPa 0,0 l/m 3,4 km/h (1 Bft) S-SW 202 14,2 C 22,1 C 5,1 km/h (1 Bft)
08.08.2013 11:20 23,3 C 59 % 1021,1 hPa 0,0 l/m 3,4 km/h (1 Bft) W 270 14,8 C 23,4 C 3,9 km/h (1 Bft)
08.08.2013 11:25 21,9 C 58 % 1020,8 hPa 0,0 l/m 3,5 km/h (1 Bft) N 360 13,3 C 23,6 C 0,0 km/h (0 Bft)
08.08.2013 11:30 21,4 C 61 % 1020,8 hPa 0,0 l/m 3,4 km/h (1 Bft) W-NW 292 13,6 C 23,2 C 1,8 km/h (1 Bft)
08.08.2013 11:35 23,7 C 56 % 1020,8 hPa 0,0 l/m 2,7 km/h (1 Bft) N 360 14,4 C 23,6 C 2,7 km/h (1 Bft)
08.08.2013 11:40 23,6 C 56 % 1020,8 hPa 0,0 l/m 3,7 km/h (1 Bft) N 360 14,3 C 24,5 C 7,7 km/h (2 Bft)
08.08.2013 11:45 22,9 C 56 % 1020,5 hPa 0,0 l/m 4,2 km/h (1 Bft) N-NW 337 13,6 C 24,6 C 5,5 km/h (1 Bft)
08.08.2013 11:50 22,7 C 58 % 1020,5 hPa 0,0 l/m 5,1 km/h (1 Bft) W-NW 292 14,0 C 23,7 C 7,4 km/h (2 Bft)
08.08.2013 11:55 21,7 C 59 % 1020,5 hPa 0,0 l/m 5,5 km/h (1 Bft) NW 315 13,3 C 23,1 C 3,2 km/h (1 Bft)
08.08.2013 12:00 21,3 C 62 % 1020,5 hPa 0,0 l/m 4,7 km/h (1 Bft) N 360 13,7 C 22,9 C 2,9 km/h (1 Bft)
08.08.2013 12:05 21,3 C 62 % 1020,4 hPa 0,0 l/m 3,7 km/h (1 Bft) N-NW 337 13,7 C 22,8 C 2,7 km/h (1 Bft)
08.08.2013 12:10 22,8 C 58 % 1020,4 hPa 0,0 l/m 3,4 km/h (1 Bft) O-NO 67 14,1 C 23,7 C 3,5 km/h (1 Bft)
08.08.2013 12:15 22,9 C 58 % 1020,4 hPa 0,0 l/m 3,4 km/h (1 Bft) N-NO 22 14,2 C 24,5 C 4,3 km/h (1 Bft)
08.08.2013 12:20 23,2 C 56 % 1020,4 hPa 0,0 l/m 3,9 km/h (1 Bft) W-NW 292 13,9 C 25,1 C 6,1 km/h (2 Bft)
08.08.2013 12:25 22,9 C 58 % 1020,4 hPa 0,0 l/m 5,1 km/h (1 Bft) NW 315 14,2 C 24,7 C 6,4 km/h (2 Bft)
08.08.2013 12:30 23,0 C 58 % 1020,4 hPa 0,0 l/m 5,3 km/h (1 Bft) N 360 14,3 C 24,1 C 6,4 km/h (2 Bft)
08.08.2013 12:35 23,0 C 57 % 1020,4 hPa 0,0 l/m 5,3 km/h (1 Bft) N 360 14,0 C 24,3 C 7,4 km/h (2 Bft)
08.08.2013 12:40 23,0 C 56 % 1020,4 hPa 0,0 l/m 5,1 km/h (1 Bft) W 270 13,7 C 24,5 C 7,2 km/h (2 Bft)
08.08.2013 12:45 22,4 C 59 % 1020,4 hPa 0,0 l/m 4,7 km/h (1 Bft) NW 315 14,0 C 24,3 C 9,3 km/h (2 Bft)
08.08.2013 12:50 23,9 C 56 % 1020,4 hPa 0,0 l/m 4,8 km/h (1 Bft) N-NW 337 14,6 C 24,7 C 4,2 km/h (1 Bft)
08.08.2013 12:55 24,4 C 53 % 1020,4 hPa 0,0 l/m 4,7 km/h (1 Bft) W-NW 292 14,2 C 25,2 C 5,6 km/h (1 Bft)
08.08.2013 13:00 24,9 C 54 % 1020,4 hPa 0,0 l/m 4,5 km/h (1 Bft) W-SW 247 14,9 C 25,6 C 9,7 km/h (2 Bft)
08.08.2013 13:05 24,5 C 53 % 1020,6 hPa 0,0 l/m 4,8 km/h (1 Bft) W-NW 292 14,3 C 26,0 C 3,9 km/h (1 Bft)
08.08.2013 13:10 24,9 C 53 % 1020,6 hPa 0,0 l/m 4,2 km/h (1 Bft) W-SW 247 14,6 C 26,5 C 5,8 km/h (2 Bft)
08.08.2013 13:15 24,9 C 54 % 1020,6 hPa 0,0 l/m 3,5 km/h (1 Bft) S-SO 157 14,9 C 26,5 C 0,0 km/h (0 Bft)
08.08.2013 13:20 23,9 C 55 % 1020,6 hPa 0,0 l/m 3,9 km/h (1 Bft) N-NW 337 14,3 C 27,0 C 5,0 km/h (1 Bft)
08.08.2013 13:25 22,5 C 57 % 1020,8 hPa 0,0 l/m 3,9 km/h (1 Bft) N 360 13,5 C 26,1 C 2,1 km/h (1 Bft)
08.08.2013 13:30 22,6 C 59 % 1020,8 hPa 0,0 l/m 4,2 km/h (1 Bft) W-NW 292 14,2 C 24,9 C 4,2 km/h (1 Bft)
08.08.2013 13:35 22,9 C 59 % 1020,8 hPa 0,0 l/m 3,2 km/h (1 Bft) W 270 14,5 C 24,5 C 3,5 km/h (1 Bft)
08.08.2013 13:40 23,3 C 59 % 1020,8 hPa 0,0 l/m 2,9 km/h (1 Bft) NW 315 14,8 C 25,0 C 3,2 km/h (1 Bft)
08.08.2013 13:45 23,5 C 59 % 1020,8 hPa 0,0 l/m 1,9 km/h (1 Bft) S-SO 157 15,0 C 25,2 C 2,9 km/h (1 Bft)
08.08.2013 13:50 23,2 C 59 % 1020,8 hPa 0,0 l/m 2,7 km/h (1 Bft) W 270 14,7 C 25,5 C 5,0 km/h (1 Bft)
08.08.2013 13:55 22,9 C 59 % 1020,8 hPa 0,0 l/m 3,4 km/h (1 Bft) W-NW 292 14,5 C 25,1 C 3,9 km/h (1 Bft)
08.08.2013 14:00 22,0 C 62 % 1020,8 hPa 0,0 l/m 3,1 km/h (1 Bft) S 180 14,4 C 24,4 C 2,9 km/h (1 Bft)
08.08.2013 14:05 21,8 C 63 % 1020,5 hPa 0,0 l/m 3,4 km/h (1 Bft) N-NO 22 14,4 C 23,9 C 1,9 km/h (1 Bft)
08.08.2013 14:10 22,6 C 65 % 1020,5 hPa 0,0 l/m 2,1 km/h (1 Bft) N-NO 22 15,7 C 23,9 C 0,0 km/h (0 Bft)
08.08.2013 14:15 22,6 C 63 % 1020,5 hPa 0,0 l/m 1,0 km/h (0 Bft) S 180 15,2 C 24,2 C 0,0 km/h (0 Bft)
08.08.2013 14:20 22,3 C 63 % 1020,5 hPa 0,0 l/m 1,3 km/h (1 Bft) N-NW 337 14,9 C 24,6 C 6,1 km/h (2 Bft)
08.08.2013 14:25 22,0 C 63 % 1020,8 hPa 0,0 l/m 1,9 km/h (1 Bft) O-NO 67 14,6 C 24,4 C 2,9 km/h (1 Bft)
08.08.2013 14:30 22,1 C 63 % 1020,8 hPa 0,0 l/m 2,7 km/h (1 Bft) O-NO 67 14,7 C 24,2 C 3,9 km/h (1 Bft)
08.08.2013 14:35 22,3 C 63 % 1020,8 hPa 0,0 l/m 2,7 km/h (1 Bft) W 270 14,9 C 23,9 C 3,1 km/h (1 Bft)
08.08.2013 14:40 21,9 C 64 % 1020,8 hPa 0,0 l/m 2,7 km/h (1 Bft) N-NO 22 14,8 C 23,7 C 0,0 km/h (0 Bft)
08.08.2013 14:45 21,9 C 65 % 1020,9 hPa 0,0 l/m 1,8 km/h (1 Bft) W-SW 247 15,0 C 23,5 C 3,2 km/h (1 Bft)
08.08.2013 14:50 21,6 C 66 % 1020,9 hPa 0,0 l/m 1,8 km/h (1 Bft) S 180 15,0 C 23,1 C 1,8 km/h (1 Bft)
08.08.2013 14:55 21,5 C 66 % 1020,9 hPa 0,0 l/m 3,1 km/h (1 Bft) W-SW 247 14,9 C 22,7 C 4,0 km/h (1 Bft)
08.08.2013 15:00 21,5 C 66 % 1020,9 hPa 0,0 l/m 3,2 km/h (1 Bft) W 270 14,9 C 22,3 C 3,5 km/h (1 Bft)
08.08.2013 15:05 21,8 C 67 % 1021,0 hPa 0,0 l/m 2,4 km/h (1 Bft) W-SW 247 15,4 C 22,3 C 2,1 km/h (1 Bft)
08.08.2013 15:10 22,0 C 66 % 1021,0 hPa 0,0 l/m 1,3 km/h (1 Bft) W-SW 247 15,3 C 22,7 C 0,0 km/h (0 Bft)
08.08.2013 15:15 21,8 C 67 % 1021,0 hPa 0,0 l/m 1,4 km/h (1 Bft) W-NW 292 15,4 C 22,7 C 2,9 km/h (1 Bft)
08.08.2013 15:20 22,0 C 67 % 1021,0 hPa 0,0 l/m 2,1 km/h (1 Bft) W-SW 247 15,6 C 22,6 C 3,5 km/h (1 Bft)
08.08.2013 15:25 22,0 C 65 % 1021,6 hPa 0,0 l/m 2,6 km/h (1 Bft) S 180 15,1 C 22,8 C 4,0 km/h (1 Bft)
08.08.2013 15:30 22,5 C 66 % 1021,6 hPa 0,0 l/m 3,2 km/h (1 Bft) W 270 15,8 C 23,3 C 2,9 km/h (1 Bft)
08.08.2013 15:35 22,9 C 64 % 1021,6 hPa 0,0 l/m 2,7 km/h (1 Bft) S 180 15,7 C 23,7 C 4,2 km/h (1 Bft)
08.08.2013 15:40 23,2 C 62 % 1021,6 hPa 0,0 l/m 2,6 km/h (1 Bft) W-SW 247 15,5 C 24,4 C 3,9 km/h (1 Bft)
08.08.2013 15:45 22,9 C 62 % 1021,8 hPa 0,0 l/m 2,1 km/h (1 Bft) O-NO 67 15,2 C 24,7 C 0,0 km/h (0 Bft)
08.08.2013 15:50 23,5 C 59 % 1021,8 hPa 0,0 l/m 1,3 km/h (1 Bft) S-SW 202 15,0 C 25,6 C 2,4 km/h (1 Bft)
08.08.2013 15:55 24,0 C 58 % 1021,8 hPa 0,0 l/m 1,0 km/h (0 Bft) W 270 15,2 C 26,9 C 0,0 km/h (0 Bft)
08.08.2013 16:00 23,5 C 60 % 1021,8 hPa 0,0 l/m 1,6 km/h (1 Bft) W 270 15,3 C 27,1 C 4,2 km/h (1 Bft)
08.08.2013 16:05 23,2 C 59 % 1021,8 hPa 0,0 l/m 3,2 km/h (1 Bft) S-SO 157 14,7 C 26,4 C 4,2 km/h (1 Bft)
08.08.2013 16:10 23,5 C 61 % 1021,8 hPa 0,0 l/m 4,0 km/h (1 Bft) S 180 15,5 C 25,9 C 5,5 km/h (1 Bft)
08.08.2013 16:15 23,5 C 61 % 1021,8 hPa 0,0 l/m 3,1 km/h (1 Bft) S 180 15,5 C 25,7 C 3,9 km/h (1 Bft)
08.08.2013 16:20 23,6 C 60 % 1021,8 hPa 0,0 l/m 3,2 km/h (1 Bft) W 270 15,4 C 25,7 C 5,8 km/h (2 Bft)
08.08.2013 16:25 23,7 C 60 % 1021,8 hPa 0,0 l/m 3,5 km/h (1 Bft) SW 225 15,5 C 25,6 C 3,2 km/h (1 Bft)
08.08.2013 16:30 24,0 C 59 % 1021,8 hPa 0,0 l/m 2,6 km/h (1 Bft) W-NW 292 15,5 C 26,5 C 2,3 km/h (1 Bft)
08.08.2013 16:35 23,5 C 59 % 1021,8 hPa 0,0 l/m 2,3 km/h (1 Bft) N-NO 22 15,0 C 27,0 C 2,1 km/h (1 Bft)
08.08.2013 16:40 23,7 C 59 % 1021,8 hPa 0,0 l/m 3,7 km/h (1 Bft) W 270 15,2 C 26,8 C 3,9 km/h (1 Bft)
08.08.2013 16:45 23,8 C 58 % 1021,8 hPa 0,0 l/m 4,0 km/h (1 Bft) S-SW 202 15,0 C 27,2 C 4,0 km/h (1 Bft)
08.08.2013 16:50 23,1 C 60 % 1021,8 hPa 0,0 l/m 2,9 km/h (1 Bft) N-NO 22 14,9 C 26,5 C 0,0 km/h (0 Bft)
08.08.2013 16:55 22,9 C 62 % 1021,8 hPa 0,0 l/m 1,9 km/h (1 Bft) N-NW 337 15,2 C 26,5 C 2,7 km/h (1 Bft)
08.08.2013 17:00 22,3 C 63 % 1021,8 hPa 0,0 l/m 1,6 km/h (1 Bft) N 360 14,9 C 25,5 C 2,1 km/h (1 Bft)
08.08.2013 17:05 22,1 C 64 % 1021,3 hPa 0,0 l/m 2,1 km/h (1 Bft) W-SW 247 15,0 C 24,9 C 2,6 km/h (1 Bft)
08.08.2013 17:10 21,7 C 67 % 1021,3 hPa 0,0 l/m 0,8 km/h (0 Bft) O-SO 112 15,3 C 24,2 C 0,0 km/h (0 Bft)
08.08.2013 17:15 21,7 C 68 % 1021,3 hPa 0,0 l/m 0,6 km/h (0 Bft) N-NW 337 15,5 C 24,1 C 2,4 km/h (1 Bft)
08.08.2013 17:20 21,7 C 67 % 1021,3 hPa 0,0 l/m 0,6 km/h (0 Bft) NO 45 15,3 C 23,9 C 0,0 km/h (0 Bft)
08.08.2013 17:25 21,8 C 67 % 1021,1 hPa 0,0 l/m 0,5 km/h (0 Bft) NO 45 15,4 C 23,9 C 0,0 km/h (0 Bft)
08.08.2013 17:30 21,8 C 68 % 1021,1 hPa 0,0 l/m 0,2 km/h (0 Bft) NW 315 15,6 C 23,9 C 2,1 km/h (1 Bft)
08.08.2013 17:35 21,7 C 69 % 1021,1 hPa 0,0 l/m 1,0 km/h (0 Bft) NO 45 15,8 C 23,5 C 2,1 km/h (1 Bft)
08.08.2013 17:40 21,6 C 69 % 1021,1 hPa 0,0 l/m 1,3 km/h (1 Bft) O 90 15,7 C 23,4 C 0,0 km/h (0 Bft)
08.08.2013 17:45 21,5 C 69 % 1021,1 hPa 0,0 l/m 0,8 km/h (0 Bft) NO 45 15,6 C 23,3 C 0,0 km/h (0 Bft)
08.08.2013 17:50 21,3 C 70 % 1021,1 hPa 0,0 l/m 0,5 km/h (0 Bft) O-NO 67 15,6 C 23,1 C 3,1 km/h (1 Bft)
08.08.2013 17:55 21,2 C 70 % 1021,1 hPa 0,0 l/m 0,6 km/h (0 Bft) O-NO 67 15,5 C 22,8 C 1,6 km/h (1 Bft)
08.08.2013 18:00 21,1 C 71 % 1021,1 hPa 0,0 l/m 0,6 km/h (0 Bft) W-NW 292 15,6 C 22,5 C 0,0 km/h (0 Bft)
08.08.2013 18:05 21,1 C 72 % 1021,1 hPa 0,0 l/m 0,3 km/h (0 Bft) O 90 15,8 C 22,3 C 1,9 km/h (1 Bft)
08.08.2013 18:10 21,1 C 72 % 1021,1 hPa 0,0 l/m 0,8 km/h (0 Bft) SO 135 15,8 C 22,2 C 0,0 km/h (0 Bft)
08.08.2013 18:15 21,2 C 73 % 1021,1 hPa 0,0 l/m 0,6 km/h (0 Bft) O 90 16,2 C 22,0 C 0,0 km/h (0 Bft)
08.08.2013 18:20 21,1 C 73 % 1021,1 hPa 0,0 l/m 0,0 km/h (0 Bft) NO 45 16,1 C 22,1 C 0,0 km/h (0 Bft)
08.08.2013 18:25 21,1 C 73 % 1021,0 hPa 0,0 l/m 0,3 km/h (0 Bft) O 90 16,1 C 22,0 C 0,0 km/h (0 Bft)
08.08.2013 18:30 21,2 C 73 % 1021,0 hPa 0,0 l/m 0,5 km/h (0 Bft) O-NO 67 16,2 C 22,1 C 0,0 km/h (0 Bft)
08.08.2013 18:35 21,1 C 74 % 1021,0 hPa 0,0 l/m 0,2 km/h (0 Bft) N 360 16,3 C 22,2 C 1,6 km/h (1 Bft)
08.08.2013 18:40 20,9 C 74 % 1021,0 hPa 0,0 l/m 0,6 km/h (0 Bft) NO 45 16,1 C 22,1 C 1,9 km/h (1 Bft)
08.08.2013 18:45 21,0 C 75 % 1021,4 hPa 0,0 l/m 1,0 km/h (0 Bft) N-NO 22 16,4 C 22,1 C 1,8 km/h (1 Bft)
08.08.2013 18:50 20,9 C 75 % 1021,4 hPa 0,0 l/m 1,3 km/h (1 Bft) NO 45 16,3 C 21,9 C 3,2 km/h (1 Bft)
08.08.2013 18:55 20,8 C 75 % 1021,4 hPa 0,0 l/m 1,4 km/h (1 Bft) NO 45 16,2 C 21,9 C 2,6 km/h (1 Bft)
08.08.2013 19:00 20,5 C 75 % 1021,4 hPa 0,0 l/m 1,1 km/h (1 Bft) N-NO 22 15,9 C 21,6 C 1,8 km/h (1 Bft)
08.08.2013 19:05 20,5 C 75 % 1021,1 hPa 0,0 l/m 0,8 km/h (0 Bft) O-NO 67 15,9 C 21,4 C 2,6 km/h (1 Bft)
08.08.2013 19:10 20,5 C 76 % 1021,1 hPa 0,0 l/m 1,0 km/h (0 Bft) NO 45 16,1 C 21,3 C 1,8 km/h (1 Bft)
08.08.2013 19:15 20,4 C 76 % 1021,1 hPa 0,0 l/m 1,0 km/h (0 Bft) N-NO 22 16,0 C 21,2 C 1,8 km/h (1 Bft)
08.08.2013 19:20 20,4 C 77 % 1021,1 hPa 0,0 l/m 0,6 km/h (0 Bft) N 360 16,2 C 21,1 C 1,9 km/h (1 Bft)
08.08.2013 19:25 20,3 C 77 % 1020,9 hPa 0,0 l/m 0,6 km/h (0 Bft) N-NO 22 16,1 C 21,1 C 2,3 km/h (1 Bft)
08.08.2013 19:30 20,4 C 77 % 1020,9 hPa 0,0 l/m 0,5 km/h (0 Bft) O 90 16,2 C 21,0 C 1,9 km/h (1 Bft)
08.08.2013 19:35 20,3 C 76 % 1020,9 hPa 0,0 l/m 0,8 km/h (0 Bft) O 90 15,9 C 20,9 C 1,8 km/h (1 Bft)
08.08.2013 19:40 20,0 C 77 % 1020,9 hPa 0,0 l/m 0,8 km/h (0 Bft) O 90 15,8 C 20,7 C 0,0 km/h (0 Bft)
08.08.2013 19:45 19,8 C 77 % 1021,5 hPa 0,0 l/m 0,3 km/h (0 Bft) O-SO 112 15,6 C 20,6 C 0,0 km/h (0 Bft)
08.08.2013 19:50 19,5 C 79 % 1021,5 hPa 0,0 l/m 1,0 km/h (0 Bft) NO 45 15,8 C 20,2 C 2,1 km/h (1 Bft)
08.08.2013 19:55 19,4 C 78 % 1021,5 hPa 0,0 l/m 1,3 km/h (1 Bft) O 90 15,5 C 20,0 C 0,0 km/h (0 Bft)
08.08.2013 20:00 19,3 C 79 % 1021,5 hPa 0,0 l/m 0,6 km/h (0 Bft) O-NO 67 15,6 C 19,7 C 1,6 km/h (1 Bft)
08.08.2013 20:05 19,2 C 79 % 1021,6 hPa 0,0 l/m 1,0 km/h (0 Bft) O-NO 67 15,5 C 19,6 C 2,3 km/h (1 Bft)
08.08.2013 20:10 19,1 C 79 % 1021,6 hPa 0,0 l/m 1,4 km/h (1 Bft) NO 45 15,4 C 19,4 C 0,0 km/h (0 Bft)
08.08.2013 20:15 19,0 C 79 % 1021,6 hPa 0,0 l/m 0,8 km/h (0 Bft) O 90 15,3 C 19,4 C 0,0 km/h (0 Bft)
08.08.2013 20:20 18,9 C 79 % 1021,6 hPa 0,0 l/m 0,0 km/h (0 Bft) NO 45 15,2 C 19,2 C 0,0 km/h (0 Bft)
08.08.2013 20:25 18,9 C 79 % 1021,2 hPa 0,0 l/m 0,0 km/h (0 Bft) O 90 15,2 C 19,1 C 0,0 km/h (0 Bft)
08.08.2013 20:30 18,7 C 80 % 1021,2 hPa 0,0 l/m 0,3 km/h (0 Bft) NO 45 15,2 C 18,9 C 3,5 km/h (1 Bft)
08.08.2013 20:35 18,6 C 80 % 1021,2 hPa 0,0 l/m 1,1 km/h (1 Bft) NO 45 15,1 C 18,7 C 2,3 km/h (1 Bft)
08.08.2013 20:40 18,3 C 81 % 1021,2 hPa 0,0 l/m 1,6 km/h (1 Bft) NO 45 15,0 C 18,4 C 3,5 km/h (1 Bft)
08.08.2013 20:45 18,4 C 82 % 1021,6 hPa 0,0 l/m 1,8 km/h (1 Bft) O-SO 112 15,3 C 18,2 C 3,2 km/h (1 Bft)
08.08.2013 20:50 18,3 C 82 % 1021,6 hPa 0,0 l/m 1,4 km/h (1 Bft) O 90 15,2 C 18,2 C 0,0 km/h (0 Bft)
08.08.2013 20:55 18,2 C 82 % 1021,6 hPa 0,0 l/m 0,6 km/h (0 Bft) O 90 15,1 C 18,2 C 1,9 km/h (1 Bft)
08.08.2013 21:00 18,2 C 83 % 1021,6 hPa 0,0 l/m 1,4 km/h (1 Bft) O-NO 67 15,3 C 18,1 C 2,4 km/h (1 Bft)
08.08.2013 21:05 18,3 C 83 % 1022,0 hPa 0,0 l/m 2,3 km/h (1 Bft) O-NO 67 15,4 C 18,1 C 2,9 km/h (1 Bft)
08.08.2013 21:10 18,3 C 83 % 1022,0 hPa 0,0 l/m 2,4 km/h (1 Bft) O 90 15,4 C 18,2 C 1,8 km/h (1 Bft)
08.08.2013 21:15 18,4 C 83 % 1022,0 hPa 0,0 l/m 1,8 km/h (1 Bft) SO 135 15,5 C 18,2 C 0,0 km/h (0 Bft)
08.08.2013 21:20 18,4 C 83 % 1022,0 hPa 0,0 l/m 0,2 km/h (0 Bft) O 90 15,5 C 18,2 C 0,0 km/h (0 Bft)
08.08.2013 21:25 18,3 C 83 % 1022,1 hPa 0,0 l/m 0,0 km/h (0 Bft) O-SO 112 15,4 C 18,3 C 0,0 km/h (0 Bft)
08.08.2013 21:30 18,4 C 83 % 1022,1 hPa 0,0 l/m 0,2 km/h (0 Bft) O-NO 67 15,5 C 18,3 C 0,0 km/h (0 Bft)
08.08.2013 21:35 18,4 C 82 % 1022,1 hPa 0,0 l/m 0,5 km/h (0 Bft) NO 45 15,3 C 18,4 C 2,9 km/h (1 Bft)
08.08.2013 21:40 18,5 C 82 % 1022,1 hPa 0,0 l/m 1,0 km/h (0 Bft) O 90 15,4 C 18,4 C 0,0 km/h (0 Bft)
08.08.2013 21:45 18,5 C 82 % 1022,2 hPa 0,0 l/m 0,8 km/h (0 Bft) O 90 15,4 C 18,4 C 0,0 km/h (0 Bft)
08.08.2013 21:50 18,4 C 82 % 1022,2 hPa 0,0 l/m 0,0 km/h (0 Bft) S-SO 157 15,3 C 18,5 C 0,0 km/h (0 Bft)
08.08.2013 21:55 18,4 C 82 % 1022,2 hPa 0,0 l/m 0,0 km/h (0 Bft) W 270 15,3 C 18,6 C 0,0 km/h (0 Bft)
08.08.2013 22:00 18,4 C 82 % 1022,2 hPa 0,0 l/m 0,2 km/h (0 Bft) S-SW 202 15,3 C 18,6 C 0,0 km/h (0 Bft)
08.08.2013 22:05 18,5 C 82 % 1022,4 hPa 0,0 l/m 1,3 km/h (1 Bft) S 180 15,4 C 18,6 C 4,3 km/h (1 Bft)
08.08.2013 22:10 18,6 C 81 % 1022,4 hPa 0,0 l/m 2,6 km/h (1 Bft) S-SW 202 15,3 C 18,6 C 5,0 km/h (1 Bft)
08.08.2013 22:15 18,5 C 81 % 1022,4 hPa 0,0 l/m 3,2 km/h (1 Bft) W 270 15,2 C 18,6 C 3,5 km/h (1 Bft)
08.08.2013 22:20 18,5 C 80 % 1022,4 hPa 0,0 l/m 2,4 km/h (1 Bft) W-NW 292 15,0 C 18,6 C 4,0 km/h (1 Bft)
08.08.2013 22:25 18,4 C 80 % 1022,5 hPa 0,0 l/m 2,3 km/h (1 Bft) W-SW 247 14,9 C 18,6 C 2,4 km/h (1 Bft)
08.08.2013 22:30 18,3 C 80 % 1022,5 hPa 0,0 l/m 1,6 km/h (1 Bft) W 270 14,8 C 18,6 C 2,9 km/h (1 Bft)
08.08.2013 22:35 18,3 C 80 % 1022,5 hPa 0,0 l/m 0,8 km/h (0 Bft) N-NW 337 14,8 C 18,5 C 2,9 km/h (1 Bft)
08.08.2013 22:40 18,1 C 81 % 1022,5 hPa 0,0 l/m 1,0 km/h (0 Bft) W-NW 292 14,8 C 18,4 C 0,0 km/h (0 Bft)
08.08.2013 22:45 17,9 C 81 % 1022,4 hPa 0,0 l/m 0,6 km/h (0 Bft) W-SW 247 14,6 C 18,2 C 2,3 km/h (1 Bft)
08.08.2013 22:50 17,7 C 81 % 1022,4 hPa 0,0 l/m 1,6 km/h (1 Bft) S 180 14,4 C 18,0 C 3,1 km/h (1 Bft)
08.08.2013 22:55 17,5 C 81 % 1022,4 hPa 0,0 l/m 2,4 km/h (1 Bft) W-SW 247 14,2 C 17,8 C 3,1 km/h (1 Bft)
08.08.2013 23:00 17,5 C 81 % 1022,4 hPa 0,0 l/m 1,6 km/h (1 Bft) W 270 14,2 C 17,6 C 0,0 km/h (0 Bft)
08.08.2013 23:05 17,5 C 81 % 1022,5 hPa 0,0 l/m 1,6 km/h (1 Bft) S 180 14,2 C 17,6 C 2,6 km/h (1 Bft)
08.08.2013 23:10 17,6 C 81 % 1022,5 hPa 0,0 l/m 2,7 km/h (1 Bft) S 180 14,3 C 17,6 C 6,1 km/h (2 Bft)
08.08.2013 23:15 17,5 C 81 % 1022,5 hPa 0,0 l/m 2,7 km/h (1 Bft) S-SO 157 14,2 C 17,6 C 2,1 km/h (1 Bft)
08.08.2013 23:20 17,6 C 81 % 1022,5 hPa 0,0 l/m 2,3 km/h (1 Bft) S 180 14,3 C 17,6 C 2,1 km/h (1 Bft)
08.08.2013 23:25 17,5 C 81 % 1022,9 hPa 0,0 l/m 1,6 km/h (1 Bft) S-SW 202 14,2 C 17,6 C 0,0 km/h (0 Bft)
08.08.2013 23:30 17,5 C 80 % 1022,9 hPa 0,0 l/m 0,5 km/h (0 Bft) SO 135 14,0 C 17,6 C 0,0 km/h (0 Bft)
08.08.2013 23:35 17,5 C 80 % 1022,9 hPa 0,0 l/m 0,6 km/h (0 Bft) S 180 14,0 C 17,6 C 1,9 km/h (1 Bft)
08.08.2013 23:40 17,5 C 81 % 1022,9 hPa 0,0 l/m 0,8 km/h (0 Bft) S-SO 157 14,2 C 17,6 C 1,9 km/h (1 Bft)
08.08.2013 23:45 17,5 C 80 % 1022,9 hPa 0,0 l/m 0,5 km/h (0 Bft) SO 135 14,0 C 17,6 C 1,6 km/h (1 Bft)
08.08.2013 23:50 17,4 C 81 % 1022,9 hPa 0,0 l/m 0,8 km/h (0 Bft) SO 135 14,1 C 17,6 C 0,0 km/h (0 Bft)
08.08.2013 23:55 17,4 C 81 % 1022,9 hPa 0,0 l/m 0,5 km/h (0 Bft) SO 135 14,1 C 17,5 C 0,0 km/h (0 Bft)
_ Min-Zeit 06:35 13:10 00:00 - 21:55 - - 10:20 06:50 23:55
Minimum _ 16,9 C 53 % 1017,6 hPa - 0,0 km/h (0 Bft) - - 12,7 C 17,0 C 0,0 km/h (0 Bft)
_ Max-Zeit 13:15 06:05 23:55 23:55 00:50 - - 00:45 16:45 00:50
Maximum _ 24,9 C 87 % 1022,9 hPa 0,0 l/m 6,1 km/h
O (2 Bft)
- - 17,2 C 27,2 C 13,7 km/h
O (3 Bft)
Durchschnitt _ 19,7 C 75 % 1020,2 hPa #0,0 l/m 2,0 km/h (1 Bft) W-NW - 14,9 C 20,4 C 2,5 km/h (1 Bft)